Terminal Aerodrome Forecast
Issued by NWS

Home | Current Version | Previous Version | Text Only | Print | Product List | Glossary On
Versions: 1 2 3 4 5 6 7 8 9 10 11 12 13 14 15 16 17 18 19 20 21 22 23
000
FTUS42 KTAE 220500
TAFECP
TAF
KECP 220530Z 2206/2306 07003KT P6SM SCT015 BKN250
      TEMPO 2208/2212 SCT009 BKN012
     FM221600 18007KT P6SM SCT040=

USA.gov is the U.S. government's official web portal to all federal, state and local government web resources and services.